DL5TW-13 Weather Reports


time (UTC)temp
C
wind
direction
speed
KPH
gust
KPH
rain 1hr
cm
rain 24hr
cm
rain mn
cm
humidity
%
barometer
mb
20260505063938 12 180 0.0 0.0 0.00 0.10 0.00 88 1005.1
20260505063438 12 180 0.0 0.0 0.00 0.10 0.00 88 1005.2
20260505062937 12 180 0.0 0.0 0.00 0.10 0.00 88 1005.1
20260505062437 12 180 0.0 0.0 0.00 0.10 0.00 88 1005.1
20260505061937 12 180 0.0 0.0 0.00 0.10 0.00 88 1005.2
20260505061437 12 90 0.0 0.0 0.00 0.10 0.00 88 1005.1
20260505060936 12 90 0.0 0.0 0.00 0.10 0.00 88 1005.1
20260505060436 12 90 0.0 0.0 0.00 0.10 0.00 89 1005.1
20260505055936 12 112 0.0 0.0 0.00 0.10 0.00 89 1005.1
20260505055435 12 112 0.0 0.0 0.00 0.10 0.00 89 1005.1
20260505054935 12 112 0.0 0.0 0.00 0.10 0.00 88 1005.4
20260505054435 11 112 0.0 0.0 0.00 0.10 0.00 89 1005.4
20260505053934 11 112 0.0 0.0 0.00 0.10 0.00 89 1005.3
20260505053434 11 112 0.0 0.0 0.00 0.10 0.00 89 1005.2
20260505052934 11 112 0.0 0.0 0.00 0.10 0.00 89 1005.3
20260505052434 11 112 0.0 0.0 0.00 0.10 0.00 89 1005.1
20260505051933 11 112 0.0 0.0 0.05 0.10 0.00 89 1005.3
20260505051433 11 112 0.0 0.0 0.05 0.10 0.00 88 1005.2
20260505050933 11 112 0.0 0.0 0.05 0.10 0.00 88 1005.3
20260505050432 11 112 0.0 0.0 0.05 0.10 0.00 88 1005.3
20260505041430 11 225 0.0 0.0 0.00 0.05 0.00 88 1005.3
20260505040929 11 225 0.0 0.0 0.00 0.05 0.00 88 1005.2
20260505040429 11 225 0.0 0.0 0.00 0.05 0.00 88 1005.3
20260505035929 11 225 0.0 0.0 0.00 0.05 0.00 88 1005.4
20260505035428 11 225 0.0 0.0 0.00 0.05 0.00 88 1005.6
20260505034928 11 225 0.0 0.0 0.00 0.05 0.00 87 1005.6
20260505034428 11 225 0.0 0.0 0.00 0.05 0.00 87 1005.7
20260505033928 11 225 0.0 0.0 0.00 0.05 0.00 87 1005.7
20260505033427 11 225 0.0 0.0 0.00 0.05 0.00 87 1005.7
20260505032927 11 225 0.0 0.0 0.00 0.05 0.00 87 1005.8
20260505032427 11 225 0.0 0.0 0.00 0.05 0.00 87 1005.9
20260505031926 11 225 0.0 0.0 0.00 0.05 0.00 87 1005.9
20260505031426 11 225 0.0 0.0 0.00 0.05 0.00 87 1006.0
20260505030926 11 225 0.0 0.0 0.00 0.05 0.00 87 1006.0
20260505030426 11 247 0.0 0.0 0.00 0.05 0.00 86 1005.9
20260505025925 11 90 0.0 0.0 0.00 0.05 0.00 86 1006.0
20260505025425 11 90 0.0 0.0 0.00 0.05 0.00 86 1006.1
20260505024925 11 202 0.0 0.0 0.00 0.05 0.00 86 1006.3
20260505024424 11 202 0.0 0.0 0.00 0.05 0.00 86 1006.3
20260505023924 11 202 0.0 0.0 0.00 0.05 0.00 86 1006.5
20260505023424 11 202 0.0 0.0 0.00 0.05 0.00 86 1006.3
20260505022924 11 247 0.0 0.0 0.00 0.05 0.00 86 1006.3
20260505022423 11 247 0.0 0.0 0.00 0.05 0.00 85 1006.3
20260505021923 11 247 0.0 0.0 0.00 0.05 0.00 85 1006.5
20260505021423 11 247 0.0 0.0 0.00 0.05 0.00 85 1006.7
20260505020922 11 247 0.0 0.0 0.00 0.05 0.00 85 1006.6
20260505020422 11 247 0.0 0.0 0.00 0.05 0.00 85 1006.5
20260505015922 11 247 0.0 0.0 0.00 0.05 0.00 85 1006.4
20260505015422 11 247 0.0 0.0 0.00 0.05 0.00 85 1006.5
20260505014921 11 247 0.0 0.0 0.00 0.05 0.00 85 1006.4
20260505014421 11 247 0.0 0.0 0.00 0.05 0.00 85 1006.5
20260505013921 11 247 0.0 0.0 0.00 0.05 0.00 85 1006.5
20260505013420 11 247 0.0 0.0 0.00 0.05 0.00 85 1006.5
20260505012920 11 247 0.0 0.0 0.00 0.05 0.00 85 1006.6
20260505012420 11 247 0.0 0.0 0.00 0.05 0.00 85 1006.5
20260505011920 11 270 0.0 0.0 0.00 0.05 0.00 85 1006.6
20260505011419 11 270 0.0 0.0 0.00 0.05 0.00 85 1006.6
20260505010919 11 270 0.0 0.0 0.00 0.05 0.00 85 1006.7
20260505010419 11 270 0.0 0.0 0.00 0.05 0.00 85 1006.6
20260505005918 11 270 0.0 0.0 0.00 0.05 0.00 85 1006.8
20260505005418 11 270 0.0 0.0 0.00 0.05 0.00 85 1006.8
20260505004918 11 270 0.0 0.0 0.00 0.05 0.00 85 1006.7
20260505004418 11 270 0.0 0.0 0.00 0.05 0.00 85 1006.8
20260505003917 11 270 0.0 0.0 0.00 0.05 0.00 85 1006.8
20260505003417 11 270 0.0 0.0 0.00 0.05 0.00 85 1006.7
20260505002917 11 270 0.0 0.0 0.00 0.05 0.00 85 1006.6
20260505002416 11 270 0.0 0.0 0.00 0.05 0.00 85 1006.7
20260505001916 11 270 0.0 0.0 0.00 0.05 0.00 85 1006.8
20260505001416 11 270 0.0 0.0 0.00 0.05 0.00 85 1007.1
20260505000916 11 270 0.0 0.0 0.00 0.05 0.00 85 1007.1
20260505000415 11 270 0.0 0.0 0.00 0.05 0.00 85 1007.0
20260504235915 11 270 0.0 0.0 0.00 0.05 0.00 85 1007.0
20260504235415 11 270 0.0 0.0 0.00 0.05 0.00 85 1007.1
20260504234914 11 270 0.0 0.0 0.00 0.05 0.00 85 1007.1
20260504234414 11 270 0.0 0.0 0.00 0.05 0.00 85 1007.4
20260504233914 11 45 0.0 0.0 0.00 0.05 0.00 85 1007.4
20260504233414 11 45 0.0 0.0 0.00 0.05 0.00 84 1007.4
20260504232913 11 45 0.0 0.0 0.00 0.05 0.00 84 1007.5
20260504232413 11 45 0.0 0.0 0.00 0.05 0.00 84 1007.5
20260504231913 11 45 0.0 0.0 0.00 0.05 0.00 84 1007.6
20260504231412 11 45 0.0 0.0 0.00 0.05 0.00 84 1007.6
20260504230912 11 45 0.0 0.0 0.00 0.05 0.00 83 1007.6
20260504230412 11 45 0.0 0.0 0.00 0.05 0.00 83 1007.7
20260504225911 11 45 0.0 0.0 0.00 0.05 0.00 84 1007.9
20260504225411 11 67 0.0 0.0 0.00 0.05 0.00 84 1007.9
20260504224911 11 67 0.0 0.0 0.00 0.05 0.00 83 1007.8
20260504224411 11 202 0.0 0.0 0.00 0.05 0.00 83 1007.9
20260504223910 11 202 0.0 0.0 0.00 0.05 0.00 83 1007.9
20260504223410 11 202 0.0 0.0 0.00 0.05 0.00 83 1008.0
20260504222910 11 202 0.0 0.0 0.00 0.05 0.00 83 1008.0
20260504222410 11 202 0.0 0.0 0.00 0.05 0.00 83 1008.0
20260504221909 11 202 0.0 0.0 0.00 0.05 0.00 83 1007.9
20260504221409 12 202 0.0 0.0 0.00 0.05 0.00 83 1008.0
20260504220909 12 202 0.0 0.0 0.00 0.05 0.00 84 1008.0
20260504220408 11 202 0.0 0.0 0.00 0.05 0.00 84 1008.0
20260504215908 11 202 0.0 0.0 0.00 0.05 0.00 84 1008.0
20260504215408 11 202 0.0 0.0 0.00 0.05 0.00 84 1008.0
20260504214908 11 202 0.0 0.0 0.00 0.05 0.00 84 1008.3
20260504214407 11 202 0.0 0.0 0.00 0.05 0.00 84 1008.2
20260504213907 11 202 0.0 0.0 0.00 0.05 0.00 84 1008.2
20260504213407 11 202 0.0 0.0 0.00 0.05 0.00 84 1008.2
20260504212906 11 202 0.0 0.0 0.00 0.05 0.00 83 1008.1
20260504212406 11 202 0.0 0.0 0.00 0.05 0.00 83 1008.1
20260504211906 11 202 0.0 0.0 0.00 0.05 0.00 83 1008.2
20260504211405 11 202 0.0 0.0 0.00 0.05 0.00 83 1008.0
20260504210905 11 202 0.0 0.0 0.00 0.05 0.00 82 1008.2
20260504210405 11 202 0.0 0.0 0.00 0.05 0.00 82 1008.2
20260504205905 11 202 0.0 0.0 0.00 0.05 0.00 82 1008.4
20260504205404 12 202 0.0 0.0 0.00 0.05 0.00 82 1008.4
20260504204904 12 202 0.0 0.0 0.00 0.05 0.00 82 1008.4
20260504204404 12 247 0.0 0.0 0.00 0.05 0.00 82 1008.4
20260504203903 12 247 0.0 0.0 0.00 0.05 0.00 82 1008.4
20260504203403 12 247 0.0 0.0 0.00 0.05 0.00 82 1008.3
20260504202903 12 247 0.0 0.0 0.00 0.05 0.00 82 1008.3
20260504202403 12 247 0.0 0.0 0.00 0.05 0.00 82 1008.3
20260504201902 12 247 0.0 0.0 0.00 0.05 0.00 82 1008.3
20260504201402 12 247 0.0 0.0 0.00 0.05 0.00 82 1008.4
20260504200902 12 247 0.0 0.0 0.00 0.05 0.00 81 1008.4
20260504200401 12 247 0.0 0.0 0.00 0.05 0.00 81 1008.3
20260504195901 12 247 0.0 0.0 0.00 0.05 0.00 81 1008.1
20260504195401 12 247 0.0 0.0 0.00 0.05 0.00 81 1008.0
20260504194901 12 247 0.0 0.0 0.00 0.05 0.00 81 1008.0
20260504194400 12 247 0.0 0.0 0.00 0.05 0.00 81 1007.9
20260504193900 12 247 0.0 0.0 0.00 0.05 0.00 81 1007.9
20260504193400 12 225 0.0 0.0 0.00 0.05 0.00 81 1007.9
20260504192859 13 247 0.0 0.0 0.00 0.05 0.00 80 1007.9
20260504192359 13 270 0.0 0.0 0.00 0.05 0.00 80 1007.9
20260504191859 13 180 0.0 0.0 0.00 0.05 0.00 80 1007.9
20260504191359 13 180 0.0 0.0 0.00 0.05 0.00 80 1007.9
20260504190858 13 112 0.0 0.0 0.05 0.05 0.00 80 1007.9
20260504190358 13 112 0.0 0.0 0.05 0.05 0.00 80 1007.9
20260504185858 13 112 0.0 0.0 0.05 0.05 0.00 80 1008.0
20260504185358 13 112 0.0 0.0 0.05 0.05 0.00 80 1008.0
20260504184857 13 90 0.0 0.0 0.05 0.05 0.00 79 1008.0
20260504184357 13 67 0.0 0.0 0.05 0.05 0.00 79 1008.0
20260504183857 13 135 0.0 0.0 0.05 0.05 0.00 78 1008.0
20260504183356 13 135 0.0 0.0 0.05 0.05 0.00 78 1008.0
20260504182856 13 45 0.0 0.0 0.05 0.05 0.00 77 1008.1
20260504182356 13 45 0.0 0.0 0.05 0.05 0.00 76 1008.1
20260504181855 13 22 0.0 0.0 0.05 0.05 0.00 76 1008.1
20260504181355 13 247 0.0 0.0 0.00 0.00 0.00 75 1008.1
20260504180855 13 45 0.0 0.0 0.00 0.00 0.00 75 1008.2
20260504180355 13 67 0.0 0.0 0.00 0.00 0.00 74 1008.3
20260504175854 14 202 0.0 0.0 0.00 0.00 0.00 74 1008.2
20260504175354 14 202 0.0 0.0 0.00 0.00 0.00 74 1008.3
20260504174854 14 112 0.0 0.0 0.00 0.00 0.00 74 1008.1
20260504174353 13 112 0.0 0.0 0.00 0.00 0.00 75 1008.1
20260504173853 13 247 0.0 0.0 0.00 0.00 0.00 75 1008.1
20260504173353 13 90 0.0 0.0 0.00 0.00 0.00 74 1008.0
20260504172853 13 112 0.0 0.0 0.00 0.00 0.00 72 1008.0
20260504172352 13 270 0.0 0.0 0.00 0.00 0.00 71 1007.9
20260504171852 14 270 0.0 0.0 0.00 0.00 0.00 71 1008.0
20260504171352 14 270 0.0 3.2 0.00 0.00 0.00 69 1008.0
20260504170851 14 180 0.0 0.0 0.00 0.00 0.00 68 1008.0
20260504170351 15 225 0.0 0.0 0.00 0.00 0.00 67 1007.9
20260504160348 22 270 0.0 0.0 0.00 0.00 0.00 46 1007.4
20260504150844 23 292 0.0 0.0 0.00 0.00 0.00 43 1007.5
20260504150344 24 270 0.0 0.0 0.00 0.00 0.00 43 1007.5
20260504140841 25 270 0.0 0.0 0.00 0.00 0.00 40 1007.6
20260504140341 25 270 0.0 0.0 0.00 0.00 0.00 40 1007.7
20260504130337 27 67 6.4 9.7 0.00 0.00 0.00 36 1008.1
20260504110330 26 270 0.0 0.0 0.00 0.00 0.00 36 1008.6
20260504100327 24 202 0.0 1.6 0.00 0.00 0.00 40 1008.9
20260504081821 21 270 1.6 3.2 0.00 0.00 0.00 47 1009.4
20260504081321 20 247 3.2 4.8 0.00 0.00 0.00 47 1009.5
20260504080820 20 247 4.8 8.0 0.00 0.00 0.00 47 1009.6
20260504080320 20 270 8.0 9.7 0.00 0.00 0.00 47 1009.6
20260504070317 20 247 1.6 6.4 0.00 0.00 0.00 47 1009.0